Address 0x284ae698ec1c520e56f4a31cb47acdd30ffe31ad

Overview

Balance:
1.394606798493712535 AVAX

AVAX Value:
$112.41 (@ $80.60/AVAX)

Token:
Txn Hash Method
Block
From
To
Value [Txn Fee]
0xdaa441f021ed3e2e95dee74fa53164dff79e1d5514ffaccde9c5b79d6e0894a30x3dc8d5ce78731072021-12-06 7:27:0035 mins ago0x284ae698ec1c520e56f4a31cb47acdd30ffe31adOUT Crabada: Game0 AVAX0.00685317633
0x1c85940a3f73732540bd538d9011c435a35124ef878df8af46c56fb47eb030300x3dc8d5ce78728672021-12-06 7:19:2842 mins ago0x284ae698ec1c520e56f4a31cb47acdd30ffe31adOUT Crabada: Game0 AVAX0.0062469930
0xeb1154da1d2ad4e961ba205e10f5c01d57f5909865e998a3f12a6278c0e039a50xe1fa763878727562021-12-06 7:15:4846 mins ago0x284ae698ec1c520e56f4a31cb47acdd30ffe31adOUT Crabada: Game0 AVAX0.021056125125
0xb5a1cbc1d26c09d908c341383c3ff024ca3f292ca577306a5b3495d61a92d91e0xe1fa763878727352021-12-06 7:15:0547 mins ago0x284ae698ec1c520e56f4a31cb47acdd30ffe31adOUT Crabada: Game0 AVAX0.00558975125
0x9a6f5e2e3cc8ce9e4d18219f5133f2db00675b61b4ea6743bfee97c2744c02510xe1fa763878727262021-12-06 7:14:4547 mins ago0x284ae698ec1c520e56f4a31cb47acdd30ffe31adOUT Crabada: Game0 AVAX0.00558975125
0x172658744233fc82678b0e02b59200f60ffa01da17188d2107a85e41e45a5cfb0xe1fa763878727152021-12-06 7:14:2447 mins ago0x284ae698ec1c520e56f4a31cb47acdd30ffe31adOUT Crabada: Game0 AVAX0.00558975125
0x72e1ea274240030ea850e43c4a3cd4f78564d1ca9726972c3e55f0440379db670xe1fa763878726872021-12-06 7:13:2948 mins ago0x284ae698ec1c520e56f4a31cb47acdd30ffe31adOUT Crabada: Game0 AVAX0.00558975125
0xca25c8913ff3e404d44089daf936f02639f00feb10a3e20c966e5d42cf4224d30xe1fa763878726762021-12-06 7:13:0549 mins ago0x284ae698ec1c520e56f4a31cb47acdd30ffe31adOUT Crabada: Game0 AVAX0.00558975125
0x81f206cbe1bd09b314e56aa8ab80e9d8dbdb8dcb0156d4d78e2a487d9462c5950xe1fa763878725682021-12-06 7:09:2752 mins ago0x284ae698ec1c520e56f4a31cb47acdd30ffe31adOUT Crabada: Game0 AVAX0.00558975125
0x1c0bdf63fc6915bdaa9e09a10b72a71cb97f7f7b87effa8307dd0fd1d53b202c0x3dc8d5ce78725602021-12-06 7:09:1352 mins ago0x284ae698ec1c520e56f4a31cb47acdd30ffe31adOUT Crabada: Game0 AVAX0.0062402430
0x523d959608f517935b681d3beddc46230a63794120b4ea3adde21a102cef70da0x312d7bbc78725552021-12-06 7:09:0353 mins ago0x284ae698ec1c520e56f4a31cb47acdd30ffe31adOUT Crabada: Game0 AVAX0.0040744230
0x1023b3ddbdc7e5eaf61fd44004ee9ee0f95f9324dfd57fdf0ca7df85dc61936b0x3dc8d5ce78725122021-12-06 7:07:3854 mins ago0x284ae698ec1c520e56f4a31cb47acdd30ffe31adOUT Crabada: Game0 AVAX0.0062466330
0x2ae9650c29e43338aa8d6dfe5d294076ad5ad3afa3b4ea665d62312e8375f8ae0xe1fa763878724772021-12-06 7:06:2355 mins ago0x284ae698ec1c520e56f4a31cb47acdd30ffe31adOUT Crabada: Game0 AVAX0.021032125
0xe2b0b076d0123fd3f86eee74e9631629afa732f1779a6e2fba2708d7b8bf87110xe1fa763878724672021-12-06 7:06:0456 mins ago0x284ae698ec1c520e56f4a31cb47acdd30ffe31adOUT Crabada: Game0 AVAX0.00558975125
0xda6b14fcc04e70d94fc69a9201a75f1a75cc10719e7858e832bdbc341206710f0xe1fa763878724412021-12-06 7:05:1056 mins ago0x284ae698ec1c520e56f4a31cb47acdd30ffe31adOUT Crabada: Game0 AVAX0.021032125
0x2c75a625151e5e6d0d6e5eea92a0eeadc76230409dacb118ff0150482ffff6460x312d7bbc78724252021-12-06 7:04:3757 mins ago0x284ae698ec1c520e56f4a31cb47acdd30ffe31adOUT Crabada: Game0 AVAX0.0044146530
0x14eda71b44f4fc41f75cf0ba9582be11aacc048248d65cc29a705a80c0cb66150xe1fa763878724152021-12-06 7:04:1657 mins ago0x284ae698ec1c520e56f4a31cb47acdd30ffe31adOUT Crabada: Game0 AVAX0.00558975125
0x952df76d850e78bd623b5cb0e995e9d55a50bd565e5967a0294a02323d0366800x312d7bbc78723832021-12-06 7:03:1458 mins ago0x284ae698ec1c520e56f4a31cb47acdd30ffe31adOUT Crabada: Game0 AVAX0.0047404530
0x1cac588c352e9fccc4db7f8e820a23cb80f6baf1fe6dc5d0a17bceef864059640x3dc8d5ce78708032021-12-06 6:10:081 hr 52 mins ago0x284ae698ec1c520e56f4a31cb47acdd30ffe31adOUT Crabada: Game0 AVAX0.0062370630
0xf7e6ae4027f8c8341e2c0ec220ca7b98c5edfd6ab2966dacf218dbf4948836e80x3dc8d5ce78707582021-12-06 6:08:391 hr 53 mins ago0x284ae698ec1c520e56f4a31cb47acdd30ffe31adOUT Crabada: Game0 AVAX0.0062407830
0x8f7bb6dfb9e2ff5b76debcd2f53609221c243d639adad919a526cf9dbfc437f50x3dc8d5ce78707482021-12-06 6:08:171 hr 53 mins ago0x284ae698ec1c520e56f4a31cb47acdd30ffe31adOUT Crabada: Game0 AVAX0.0062025930
0x9fab7ef64536d108339e321de745d9c382219fc1bfed3d6f55e3177280e7ccd30xe1fa763878707292021-12-06 6:07:391 hr 54 mins ago0x284ae698ec1c520e56f4a31cb47acdd30ffe31adOUT Crabada: Game0 AVAX0.021032125
0x55190e9f0f6455fe466a30c93925f7be4acf4832ea1a7566f6469b82479a76180x312d7bbc78707012021-12-06 6:06:441 hr 55 mins ago0x284ae698ec1c520e56f4a31cb47acdd30ffe31adOUT Crabada: Game0 AVAX0.0040744230
0x663e4fb731c2ebaab6b2b44f4aa1070c5e0c67cfc5d6c223a732f3531fe7dd310x3dc8d5ce78706272021-12-06 6:04:141 hr 57 mins ago0x284ae698ec1c520e56f4a31cb47acdd30ffe31adOUT Crabada: Game0 AVAX0.0062434530
0x593da8983a60edc433072d20616c16d4bec226bae1bf33e443fc293e7fed76600xe1fa763878706022021-12-06 6:03:231 hr 58 mins ago0x284ae698ec1c520e56f4a31cb47acdd30ffe31adOUT Crabada: Game0 AVAX0.021032125
[ Download CSV Export 
Latest 6 internal transactions
Parent Txn Hash Block From To Value
0x5bf5996dd9a422eaceaef5e5d2ec8cb79c170db5f62390352ffdc9c1f74e5e3576016862021-11-30 0:00:566 days 8 hrs ago Trader Joe: Router0x284ae698ec1c520e56f4a31cb47acdd30ffe31ad5.789025540513991147 AVAX
0xb7cf76e724c0d34f36dd0e85d8a6706f1b0b875fc6cf50a582579a6acfe7f35975854712021-11-29 14:59:186 days 17 hrs ago 0xed08e227644bae137daff340d755e668f835f1210x284ae698ec1c520e56f4a31cb47acdd30ffe31ad2.04024135 AVAX
0x8133d3b8e302d9511c0def837f2dc50fa0240abeae9a4a2949f6c11bf2b5985a74609302021-11-26 17:18:349 days 14 hrs ago Trader Joe: Router0x284ae698ec1c520e56f4a31cb47acdd30ffe31ad3.659174780473197709 AVAX
0xe1ea8d2b6a69ed507b03f6f39b025864cb8201586a919ed466f2393d34bfca5674044732021-11-25 9:49:3010 days 22 hrs ago Trader Joe: Router0x284ae698ec1c520e56f4a31cb47acdd30ffe31ad1.826035392646277971 AVAX
0xc18e03f7197be7e1ea2ddb554898e6de1b0bb839bb2f1850d30ef7348ba9abfe73810492021-11-24 20:45:1011 days 11 hrs ago Trader Joe: Router0x284ae698ec1c520e56f4a31cb47acdd30ffe31ad3.602288828575436095 AVAX
0x5a1980ad9a172983b2f93f2a843ef7941729b0ba776c93e552646b2ef4db1b9b72948252021-11-22 20:41:0113 days 11 hrs ago Trader Joe: Router0x284ae698ec1c520e56f4a31cb47acdd30ffe31ad1.720850359555114511 AVAX
[ Download CSV Export 
Loading

Contract Name:
0

Compiler Version
0

Optimization Enabled:
0

Other Settings:
-NA-
Block Transaction Gas Used Reward
Age Block Fee Address BC Fee Address Voting Power Jailed Incoming
Block Uncle Number Difficulty Gas Used Reward
Loading
Make sure to use the "Vote Down" button for any spammy posts, and the "Vote Up" for interesting conversations.